[Iaude] MPEC K83: 2017 BL233 [a=43.37,e=0.04,i=2.9,H=8.70]

mpec at cfa.harvard.edu mpec at cfa.harvard.edu
Thu May 23 13:22:28 EDT 2024


M.P.E.C. 2024-K83                                  Issued 2024 May 23, 17:21 UT

     The Minor Planet Electronic Circulars contain information on unusual
         minor planets, routine data on comets and natural satellites,
         and occasional editorial announcements.  They are published
    on behalf of Division F of the International Astronomical Union by the
          Minor Planet Center, Smithsonian Astrophysical Observatory,
                          Cambridge, MA 02138, U.S.A.
			  
             Prepared using the Tamkin Foundation Computer Network

                              MPC at CFA.HARVARD.EDU
            URL https://www.minorplanetcenter.net/    ISSN 1523-6714

                                   2017 BL233                                   


Additional Observations:
     K17BN3L 1C2016 04 02.41999912 27 02.76 +00 10 12.0                WEK083T09
     K17BN3L 1C2016 04 02.52598012 27 02.31 +00 10 14.7                WEK083T09
     K17BN3L 1C2016 06 05.34127412 23 50.36 +00 28 09.4                WEK083T09
     K17BN3L 1C2016 06 05.35825112 23 50.33 +00 28 09.4                WEK083T09

Observer details:
T09 Subaru Telescope, Maunakea.  Observer .  Measurer S. Deen.  8.3-m Subaru
    Telescope + CCD.

Orbital elements:
2017 BL233                                                                      
Epoch 2024 Mar. 31.0 TT = JDT 2460400.5                 Alexandersen            
M 220.75940              (2000.0)            P               Q                  
n   0.00345138     Peri.  255.96593     +0.92671485     +0.37248700             
a  43.3651340      Node    82.14645     -0.32257963     +0.85620775             
e   0.0448535      Incl.    2.86581     -0.19272254     +0.35799683             
P 286              H    8.70          G   0.15           U   8                  
Residuals in seconds of arc
160402 T09  0.0   0.0     170130 T09  0.1+  0.1-    170202 T09  0.1-  0.0
160402 T09  0.0   0.1-    170130 T09  0.0   0.1-    170223 T09  0.0   0.1+
160605 T09  0.1+  0.1+    170130 T09  0.1+  0.1-    170223 T09  0.3+  0.2+
160605 T09  0.0   0.0     170130 T09  0.0   0.1-    170223 T09  0.1-  0.2-
170128 T09  0.0   0.1+    170202 T09  0.1-  0.2+    170223 T09  0.1-  0.2-
170128 T09  0.0   0.1+    170202 T09  0.1+  0.0     170223 T09  0.1-  0.2-
170128 T09  0.1-  0.1+    170202 T09  0.0   0.0
170130 T09  0.1+  0.1+    170202 T09  0.1-  0.0

Ephemeris:
2017 BL233               a,e,i = 43.37, 0.04, 3                  q = 41.4201
Date    TT    R. A. (2000) Decl.     Delta      r    Elong.  Phase     V
2024 04 23    13 00 44.8 -03 34 24  43.9140 44.8722   162.2     0.4    25.3
...
2024 05 08    12 59 47.7 -03 28 56  44.0171 44.8711   147.4     0.7    25.3
...
2024 05 16    12 59 21.1 -03 26 31  44.0955 44.8705   139.6     0.8    25.3
...
2024 05 22    12 59 03.4 -03 24 58  44.1637 44.8701   133.8     0.9    25.3
2024 05 23    12 59 00.6 -03 24 44  44.1758 44.8700   132.8     0.9    25.3
2024 05 24    12 58 58.0 -03 24 30  44.1881 44.8700   131.8     1.0    25.3
...
2024 05 30    12 58 43.2 -03 23 18  44.2658 44.8695   126.0     1.0    25.3
...
2024 06 07    12 58 27.3 -03 22 07  44.3788 44.8690   118.3     1.1    25.4
...
2024 06 22    12 58 10.2 -03 21 19  44.6124 44.8679   103.9     1.3    25.4

M. P. C. Staff               (C) Copyright 2024 MPC           M.P.E.C. 2024-K83





More information about the Iaude mailing list